Weather History for Coral Harbour, NU

Change the Weather History Date:

Saturday, November 24, 2012

  Actual Average Record
Temperature  
Mean Temperature -9 °F -  
Max Temperature 0 °F -4 °F 19 °F (1998)
Min Temperature -14 °F -18 °F -25 °F (2011)
Degree Days  
Heating Degree Days 74    
Moisture  
Dew Point -17 °F    
Average Humidity 66    
Maximum Humidity 100    
Minimum Humidity 47    
Precipitation  
Precipitation 0.04 in 0.02 in - ()
Sea Level Pressure  
Sea Level Pressure 29.93 in    
Wind  
Wind Speed 7 mph ()    
Max Wind Speed 15 mph    
Max Gust Speed -    
Visibility 10.3 miles    
Events Snow    
Averages and records for this station are not official NWS values.
T = Trace of Precipitation, MM = Missing Value Source: Averaged Metar Reports

Daily Weather History Graph

Daily Weather History Graph

Search for Another Location

Airport:

Trip Planner

Search our weather history database for the weather conditions in past years. The results will help you decide how hot, cold, wet, or windy it might be!

Date:

Astronomy

Nov. 24, 2012 Rise Set
Actual Time 9:33 AM EST 3:06 PM EST
Civil Twilight 8:26 AM EST 4:13 PM EST
Nautical Twilight 7:22 AM EST 5:16 PM EST
Astronomical Twilight 6:25 AM EST 6:14 PM EST
Moon 1:56 PM EST (11/24) 4:36 AM EST (11/24)
Length of Visible Light 7h 46m
Length of Day
5h 33m
Waxing Gibbous, 87% of the Moon is Illuminated
Nov 24
Waxing Gibbous
Nov 28
Full
Dec 6
Last Quarter
Dec 13
New
Dec 20
First Quarter

Hourly Weather History & Observations

Time (EST) Temp. Windchill Dew Point Humidity Pressure Visibility Wind Dir Wind Speed Gust Speed Precip Events Conditions
12:00 AM -20.2 °F -38.8 °F -20.2 °F 100% 30.04 in 15.0 mi WSW 8.1 mph - N/A   Clear
1:00 AM -12 °F - -21 °F 48% 30.03 in 15 mi NNW 10.4 mph - -   Partly Cloudy
1:00 AM -11.2 °F -30.1 °F -20.2 °F 64% 30.03 in 15.0 mi NNW 10.4 mph - N/A   Clear
2:00 AM -11.2 °F -30.1 °F -22.0 °F 59% 30.03 in 15.0 mi NNW 10.4 mph - N/A   Clear
3:00 AM -13.0 °F -35.2 °F -20.2 °F 70% 30.02 in 15.0 mi WSW 13.8 mph - N/A   Clear
4:00 AM -11.2 °F -33.7 °F -22.0 °F 59% 30.01 in 15.0 mi NNW 15.0 mph - N/A   Clear
5:00 AM -9.4 °F -27.9 °F -18.4 °F 65% 29.99 in 15.0 mi NNW 10.4 mph - N/A   Clear
6:00 AM -11.2 °F -29.0 °F -20.2 °F 64% 29.99 in 15.0 mi NW 9.2 mph - N/A   Clear
7:00 AM -10 °F - -19 °F 47% 29.98 in 15 mi North 9.2 mph - - Snow Snow
8:00 AM -9.4 °F -24.3 °F -18.4 °F 65% 29.97 in 15.0 mi NNW 6.9 mph - N/A   Mostly Cloudy
9:00 AM -9.4 °F -24.3 °F -20.2 °F 59% 29.96 in 15.0 mi NNW 6.9 mph - N/A   Scattered Clouds
10:00 AM -9.4 °F - -18.4 °F 65% 29.95 in 12.0 mi Calm Calm - N/A   Mostly Cloudy
10:31 AM - - - N/A% - 6.0 mi Calm Calm - N/A   Unknown
11:00 AM -9.4 °F - -16.6 °F 71% 29.94 in 5.0 mi Calm Calm - N/A Snow Light Snow
12:00 PM -9.4 °F - -16.6 °F 71% 29.93 in 5.0 mi Calm Calm - N/A Snow Light Snow
1:00 PM -9 °F - -17 °F 52% 29.91 in 5 mi North 5.8 mph - - Snow Light Snow
1:00 PM -9.4 °F -22.7 °F -16.6 °F 71% 29.91 in 5.0 mi North 5.8 mph - N/A Snow Light Snow
1:36 PM - - - N/A% - 5.0 mi North 4.6 mph - N/A   Ice Crystals
2:00 PM -9.4 °F -20.9 °F -18.4 °F 65% 29.91 in 5.0 mi North 4.6 mph - N/A   Ice Crystals
2:18 PM - - - N/A% - 5.0 mi North 4.6 mph - N/A   Unknown
3:00 PM -11.2 °F - -18.4 °F 70% 29.90 in 5.0 mi Calm Calm - N/A Snow Light Snow
3:30 PM - - - N/A% - 10.0 mi Calm Calm - N/A   Mostly Cloudy
4:00 PM -9.4 °F - -16.6 °F 71% 29.89 in 12.0 mi Calm Calm - N/A   Mostly Cloudy
4:11 PM - - - N/A% - 12.0 mi Calm Calm - N/A   Unknown
5:00 PM -7.6 °F -22.1 °F -16.6 °F 65% 29.88 in 12.0 mi ENE 6.9 mph - N/A Snow Light Snow
6:00 PM -7.6 °F -23.4 °F -16.6 °F 65% 29.88 in 12.0 mi ENE 8.1 mph - N/A Snow Light Snow
7:00 PM -8 °F - -16 °F 55% 29.86 in 12 mi NNE 8.1 mph - - Snow Light Snow
7:00 PM -7.6 °F -23.4 °F -14.8 °F 71% 29.86 in 12.0 mi NNE 8.1 mph - N/A Snow Light Snow
8:00 PM -5.8 °F -21.2 °F -13.0 °F 71% 29.85 in 12.0 mi NNE 8.1 mph - N/A Snow Light Snow
8:47 PM - - - N/A% - 12.0 mi NE 10.4 mph - N/A   Mostly Cloudy
9:00 PM -5.8 °F -24.4 °F -13.0 °F 71% 29.83 in 12.0 mi NE 11.5 mph - N/A   Mostly Cloudy
10:00 PM -4.0 °F -23.7 °F -11.2 °F 71% 29.81 in 12.0 mi NE 13.8 mph - N/A   Mostly Cloudy
10:32 PM - - - N/A% - 2.5 mi NE 12.7 mph - N/A   Ice Crystals
11:00 PM -0.4 °F -19.9 °F -7.6 °F 72% 29.80 in 2.5 mi NE 15.0 mph - N/A   Ice Crystals
11:14 PM - - - N/A% - 1.0 mi NE 15.0 mph - N/A   Ice Crystals